Weather Roundup
Issued by NWS

Home | Current Version | Previous Version | Graphics & Text | Print | Product List | Glossary Off
Versions: 1 2 3 4 5 6 7 8 9 10 11 12 13 14 15 16 17 18 19 20 21 22 23 24 25 26 27 28 29 30 31 32 33 34 35 36 37 38 39 40 41 42 43 44 45 46 47 48 49 50

595
NZUS93 KARX 041459
HRRWXR

CURRENT HOURLY OBSERVATIONS ACROSS
MUCH OF THE UPPER MISSISSIPPI VALLEY
NATIONAL WEATHER SERVICE LA CROSSE WI
900 AM CST SUN DEC 04 2016


...SOUTHEAST MINNESOTA...


CITY           SKY/WX    TMP DP  RH WIND       PRES   REMARKS
ROCHESTER      LGT SNOW  32  31  96 S13       29.91F VSB 1   WCI  22
ROCHESTER/MAYO CLOUDY    32  32 100 SE9G17    29.92F WCI  24
WINONA         LGT SNOW  34  34 100 SE6       29.97F VSB 1   WCI  29
AUSTIN         LGT SNOW  34  30  86 S9        29.90F WCI  26
ALBERT LEA     NOT AVBL
DODGE CENTER   LGT SNOW  32  30  93 S14       29.90F WCI  22
PRESTON        LGT SNOW  31  30  96 S13       29.93F VSB 3/4 WCI  21
OWATONNA       CLOUDY    34  30  86 S8        29.90S FOG     WCI  27
FARIBAULT      CLOUDY    34  32  93 S8        29.90F FOG     WCI  27
$$

...ELSEWHERE IN MINNESOTA...


CITY           SKY/WX    TMP DP  RH WIND       PRES   REMARKS
MINNEAPOLIS    CLOUDY    33  31  92 S8        29.91F FOG     WCI  26
INTNL FALLS    LGT SNOW  28  25  88 SE8       29.83F VSB 3/4 WCI  20
DULUTH         SNOW      29  27  92 SE13      29.89F VSB 1/2 WCI  19
RED WING       NOT AVBL
REDWOOD FALLS  PTSUNNY   34  31  88 S13       29.85F WCI  25
MANKATO        CLOUDY    33  32  96 S8        29.90F FOG     WCI  26
WORTHINGTON    CLOUDY    33  31  92 SW15      29.86F WCI  23
FAIRMONT       CLOUDY    34  32  92 SW10      29.90F WCI  26
$$

...SOUTHWEST WISCONSIN...


CITY           SKY/WX    TMP DP  RH WIND       PRES   REMARKS
LA CROSSE      LGT SNOW  34  32  92 S9        30.00F FOG     WCI  27
PRAIRIE DU CHI LGT SNOW  32  30  94 SE8       30.02F VSB 1   WCI  25
BOSCOBEL       SNOW      33  30  88 VRB5      30.04F VSB 1/2 WCI  29
LONE ROCK      NOT AVBL
PLATTEVILLE    CLOUDY    31  31 100 SE13      30.05F VSB 3/4 WCI  21
FORT MC COY    LGT SNOW  31  30  96 SE7       30.01F WCI  25
CAMP DOUGLAS   LGT SNOW  32  30  93 SE9       30.03F FOG     WCI  24
MAUSTON-NEW LI LGT SNOW  31  30  96 SE7       30.03F WCI  24
VIROQUA        CLOUDY    31  31 100 SE16      29.98F VSB 3/4 WCI  20
WIS DELLS      LGT SNOW  30  29  96 SE5       30.06F VSB 3/4 WCI  25
$$

...ELSEWHERE IN WISCONSIN...


CITY           SKY/WX    TMP DP  RH WIND       PRES   REMARKS
MILWAUKEE      CLOUDY    33  26  75 S5        30.13F WCI  29
MADISON        LGT SNOW  30  28  92 S13       30.08F VSB 1   WCI  20
GREEN BAY      LGT SNOW  31  30  96 SE7       30.11F FOG     WCI  24
EAU CLAIRE     NOT AVBL
BLACK RVR FLS  LGT SNOW  32  32 100 SE5       29.99F VSB 1   WCI  27
MEDFORD        LGT SNOW  27  25  93 SE6       29.99F WCI  21
WAUSAU         LGT SNOW  28  26  92 SE8       30.03F FOG     WCI  20
WIS RAPIDS     LGT SNOW  30  29  96 SE8       30.05F VSB 1   WCI  22
MARSHFIELD     LGT SNOW  29  27  92 SE8       30.00F VSB 3/4 WCI  21
RICE LAKE      LGT SNOW  30  29  95 SE9       29.96F VSB 1   WCI  22
$$

...NORTHEAST IOWA...


CITY           SKY/WX    TMP DP  RH WIND       PRES   REMARKS
WATERLOO       LGT SNOW  33  31  92 S13       29.97F VSB 3/4 WCI  24
DUBUQUE        SNOW      30  28  92 SE13      30.03F VSB 1/2 WCI  20
DECORAH        SNOW      32  32 100 S12G18    29.95F VSB 1/2 WCI  23
MASON CITY     CLOUDY    33  32  96 S14       29.93F WCI  23
CHARLES CITY   FOG       34  34 100 S17       29.94F VSB 3/4 WCI  23
OELWEIN        SNOW      32  32 100 S16       29.99S VSB 1/4 WCI  21
$$

...ELSEWHERE IN IOWA...


CITY           SKY/WX    TMP DP  RH WIND       PRES   REMARKS
DES MOINES     LGT SNOW  34  33  96 S7        29.98S FOG     WCI  28
IOWA CITY      SNOW      33  32  96 SE10      30.05F VSB 1/2 WCI  25
FORT DODGE     CLOUDY    34  30  86 SW9       29.95R VSB 1/4 WCI  26
MARSHALLTOWN   LGT SNOW  33  33 100 S12       29.96F FOG     WCI  24
CEDAR RAPIDS   SNOW      32  32 100 SE7       30.01F VSB 1/2 WCI  26
$$

...NORTHERN ILLINOIS...


CITY           SKY/WX    TMP DP  RH WIND       PRES   REMARKS
CHICAGO-OHARE  CLOUDY    33  26  75 SE7       30.12F WCI  27
CHICAGO-MIDWAY CLOUDY    34  25  69 E8        30.13F WCI  27
MOLINE         HVY SNOW  32  30  92 SE6       30.07S VSB 1/4 WCI  26
ROCKFORD       LGT SNOW  31  29  92 SE10      30.12F VSB 3/4 WCI  22
PEORIA         SNOW      33  32  96 E6        30.06F VSB 1/2 WCI  28
$$

NOTE: "FAIR" INDICATES FEW OR NO CLOUDS BELOW 12,000 FEET WITH NO
SIGNIFICANT WEATHER AND/OR OBSTRUCTIONS TO VISIBILITY. WIND
SPEEDS ARE IN MILES-PER-HOUR.




USA.gov is the U.S. government's official web portal to all federal, state and local government web resources and services.